Time,TemperatureF,DewpointF,PressureIn,WindDirection,WindDirectionDegrees,WindSpeedMPH,WindSpeedGustMPH,Humidity,HourlyPrecipIn,Conditions,Clouds,dailyrainin,SoftwareType,DateUTC
2016-09-26 00:01:00,53.9,44.0,30.18,NW,318,6.0,6.0,69,0.00,,---,0.00,VWS V15.00,2016-09-26 04:01:00,
2016-09-26 00:06:00,53.7,43.8,30.18,NW,324,0.0,4.0,69,0.00,,---,0.00,VWS V15.00,2016-09-26 04:06:00,
2016-09-26 00:11:00,53.7,44.2,30.18,NNW,329,2.0,2.0,70,0.00,,---,0.00,VWS V15.00,2016-09-26 04:11:00,
2016-09-26 00:16:00,53.7,43.8,30.18,NW,324,4.0,6.0,69,0.00,,---,0.00,VWS V15.00,2016-09-26 04:16:00,
2016-09-26 00:21:00,53.6,44.1,30.18,NNW,346,3.0,6.0,70,0.00,,---,0.00,VWS V15.00,2016-09-26 04:21:00,
2016-09-26 00:26:00,53.4,43.9,30.18,North,356,2.0,6.0,70,0.00,,---,0.00,VWS V15.00,2016-09-26 04:26:00,
2016-09-26 00:31:00,53.3,43.8,30.18,NNW,340,3.0,4.0,70,0.00,,---,0.00,VWS V15.00,2016-09-26 04:31:00,
2016-09-26 00:36:00,53.2,44.0,30.18,North,358,0.0,6.0,71,0.00,,---,0.00,VWS V15.00,2016-09-26 04:36:00,
2016-09-26 00:51:00,52.9,44.8,30.18,NW,322,1.0,1.0,74,0.00,,---,0.00,VWS V15.00,2016-09-26 04:51:00,
2016-09-26 01:01:00,52.3,43.9,30.19,North,4,1.0,3.0,73,0.00,,---,0.00,VWS V15.00,2016-09-26 05:01:00,
2016-09-26 01:06:00,52.1,43.7,30.19,NW,316,3.0,4.0,73,0.00,,---,0.00,VWS V15.00,2016-09-26 05:06:00,
2016-09-26 01:08:00,52.1,43.7,30.19,NNW,341,4.0,6.0,73,0.00,,---,0.00,VWS V15.00,2016-09-26 05:08:00,
2016-09-26 01:12:00,52.1,43.7,30.19,NNW,344,1.0,4.0,73,0.00,,---,0.00,VWS V15.00,2016-09-26 05:12:00,
2016-09-26 01:17:00,52.0,44.0,30.19,NW,322,5.0,5.0,74,0.00,,---,0.00,VWS V15.00,2016-09-26 05:17:00,
2016-09-26 01:22:00,52.0,44.0,30.19,NNW,348,1.0,2.0,74,0.00,,---,0.00,VWS V15.00,2016-09-26 05:22:00,
2016-09-26 01:27:00,52.0,44.0,30.19,NNW,344,4.0,6.0,74,0.00,,---,0.00,VWS V15.00,2016-09-26 05:27:00,
2016-09-26 01:32:00,52.1,44.1,30.19,NW,317,5.0,5.0,74,0.00,,---,0.00,VWS V15.00,2016-09-26 05:32:00,
2016-09-26 01:37:00,52.1,44.1,30.19,NNW,331,6.0,6.0,74,0.00,,---,0.00,VWS V15.00,2016-09-26 05:37:00,
2016-09-26 01:42:00,52.1,44.1,30.19,NW,318,0.0,4.0,74,0.00,,---,0.00,VWS V15.00,2016-09-26 05:42:00,
2016-09-26 01:47:00,51.9,44.2,30.19,NNW,337,0.0,3.0,75,0.00,,---,0.00,VWS V15.00,2016-09-26 05:47:00,
2016-09-26 01:52:00,51.8,44.1,30.19,NW,320,5.0,5.0,75,0.00,,---,0.00,VWS V15.00,2016-09-26 05:52:00,
2016-09-26 01:57:00,51.7,44.4,30.19,North,4,0.0,2.0,76,0.00,,---,0.00,VWS V15.00,2016-09-26 05:57:00,
2016-09-26 02:02:00,51.6,44.3,30.19,NW,316,0.0,7.0,76,0.00,,---,0.00,VWS V15.00,2016-09-26 06:02:00,
2016-09-26 02:07:00,51.6,44.3,30.18,NW,320,0.0,0.0,76,0.00,,---,0.00,VWS V15.00,2016-09-26 06:07:00,
2016-09-26 02:12:00,51.6,44.3,30.18,NW,323,0.0,6.0,76,0.00,,---,0.00,VWS V15.00,2016-09-26 06:12:00,
2016-09-26 02:16:00,51.7,44.0,30.18,NNW,341,0.0,3.0,75,0.00,,---,0.00,VWS V15.00,2016-09-26 06:16:00,
2016-09-26 02:21:00,51.9,44.2,30.19,NNE,15,4.0,7.0,75,0.00,,---,0.00,VWS V15.00,2016-09-26 06:21:00,
2016-09-26 02:26:00,51.7,43.7,30.19,WNW,301,2.0,7.0,74,0.00,,---,0.00,VWS V15.00,2016-09-26 06:26:00,
2016-09-26 02:31:00,51.5,43.8,30.19,NW,315,0.0,6.0,75,0.00,,---,0.00,VWS V15.00,2016-09-26 06:31:00,
2016-09-26 02:36:00,51.3,44.3,30.18,NNW,348,0.0,5.0,77,0.00,,---,0.00,VWS V15.00,2016-09-26 06:36:00,
2016-09-26 02:41:00,51.0,44.0,30.19,NW,316,2.0,6.0,77,0.00,,---,0.00,VWS V15.00,2016-09-26 06:41:00,
2016-09-26 02:46:00,50.8,44.2,30.19,North,349,0.0,4.0,78,0.00,,---,0.00,VWS V15.00,2016-09-26 06:46:00,
2016-09-26 02:51:00,50.5,43.9,30.19,North,8,3.0,5.0,78,0.00,,---,0.00,VWS V15.00,2016-09-26 06:51:00,
2016-09-26 02:56:00,50.2,43.3,30.19,North,357,0.0,3.0,77,0.00,,---,0.00,VWS V15.00,2016-09-26 06:56:00,
2016-09-26 03:01:00,49.8,43.2,30.19,NNW,327,2.0,4.0,78,0.00,,---,0.00,VWS V15.00,2016-09-26 07:01:00,
2016-09-26 03:06:00,49.6,43.4,30.18,NW,322,2.0,5.0,79,0.00,,---,0.00,VWS V15.00,2016-09-26 07:06:00,
2016-09-26 03:11:00,49.5,43.6,30.19,NNW,327,0.0,4.0,80,0.00,,---,0.00,VWS V15.00,2016-09-26 07:11:00,
2016-09-26 03:16:00,49.4,43.5,30.18,NW,316,0.0,6.0,80,0.00,,---,0.00,VWS V15.00,2016-09-26 07:16:00,
2016-09-26 03:21:00,49.6,44.0,30.18,NW,308,3.0,6.0,81,0.00,,---,0.00,VWS V15.00,2016-09-26 07:21:00,
2016-09-26 03:26:00,49.7,44.1,30.18,NNW,337,3.0,5.0,81,0.00,,---,0.00,VWS V15.00,2016-09-26 07:26:00,
2016-09-26 03:31:00,49.6,43.7,30.18,NNW,331,3.0,7.0,80,0.00,,---,0.00,VWS V15.00,2016-09-26 07:31:00,
2016-09-26 03:36:00,49.6,44.0,30.18,NNW,334,2.0,5.0,81,0.00,,---,0.00,VWS V15.00,2016-09-26 07:36:00,
2016-09-26 03:41:00,49.6,44.0,30.19,NW,323,0.0,6.0,81,0.00,,---,0.00,VWS V15.00,2016-09-26 07:41:00,
2016-09-26 03:46:00,49.5,44.2,30.18,NNW,337,0.0,3.0,82,0.00,,---,0.00,VWS V15.00,2016-09-26 07:46:00,
2016-09-26 03:56:00,49.3,44.4,30.18,NNW,334,0.0,4.0,83,0.00,,---,0.00,VWS V15.00,2016-09-26 07:56:00,
2016-09-26 04:06:00,49.1,44.2,30.18,NNW,334,0.0,0.0,83,0.00,,---,0.00,VWS V15.00,2016-09-26 08:06:00,
2016-09-26 04:11:00,49.0,44.1,30.18,WNW,302,0.0,6.0,83,0.00,,---,0.00,VWS V15.00,2016-09-26 08:11:00,
2016-09-26 04:16:00,48.9,44.3,30.17,NW,319,0.0,5.0,84,0.00,,---,0.00,VWS V15.00,2016-09-26 08:16:00,
2016-09-26 04:21:00,49.0,44.4,30.17,NNW,328,0.0,4.0,84,0.00,,---,0.00,VWS V15.00,2016-09-26 08:21:00,
2016-09-26 04:26:00,49.0,44.7,30.17,NW,307,0.0,4.0,85,0.00,,---,0.00,VWS V15.00,2016-09-26 08:26:00,
2016-09-26 04:31:00,49.0,44.7,30.17,NNW,329,0.0,4.0,85,0.00,,---,0.00,VWS V15.00,2016-09-26 08:31:00,
2016-09-26 04:36:00,49.0,44.4,30.17,NW,308,4.0,5.0,84,0.00,,---,0.00,VWS V15.00,2016-09-26 08:36:00,
2016-09-26 04:41:00,49.1,44.5,30.17,NNW,329,0.0,2.0,84,0.00,,---,0.00,VWS V15.00,2016-09-26 08:41:00,
2016-09-26 04:46:00,49.1,44.5,30.17,NW,322,0.0,3.0,84,0.00,,---,0.00,VWS V15.00,2016-09-26 08:46:00,
2016-09-26 04:51:00,49.1,44.5,30.17,WNW,295,1.0,4.0,84,0.00,,---,0.00,VWS V15.00,2016-09-26 08:51:00,
2016-09-26 04:56:00,49.1,44.5,30.17,NNW,338,0.0,5.0,84,0.00,,---,0.00,VWS V15.00,2016-09-26 08:56:00,
2016-09-26 05:01:00,49.1,44.8,30.17,North,6,2.0,7.0,85,0.00,,---,0.00,VWS V15.00,2016-09-26 09:01:00,